Temperature
20 20 19 19 19 18 18 18 18 17 17 17 17 17 17 17 16 16 16 16 16 16 16 16 16 16 16 16 16 15 15 15 15 15 14 14 14 14 14 14 13 13 13
20 20 19 19 18 18 18 18 18 18 17 17 17 17 16 16 16 16 16 16 16 16 16 16 16 15 15 15 15 15 15 15 15 14 14 13 13 13 13 13 13 13 13
20 20 19 19 18 18 18 18 17 17 17 17 17 16 16 16 16 16 16 16 16 16 15 15 15 15 15 15 15 15 15 15 14 14 13 13 13 13 12 12 12 12 12
20 20 19 19 18 18 18 18 17 17 17 17 17 16 16 16 16 15 15 15 15 15 15 15 15 15 15 15 15 14 14 14 14 14 13 12 12 12 12 12 12 11 11
20 20 19 19 18 18 18 17 17 17 16 16 16 16 16 16 15 15 15 15 15 15 15 15 14 14 14 14 14 14 14 14 13 13 12 12 12 12 12 11 11 11 11
20 19 19 18 18 18 17 17 17 17 16 16 16 16 16 16 15 15 15 14 14 14 14 14 14 14 14 14 13 13 13 13 13 12 12 12 11 11 11 11 11 11 10
19 19 19 18 18 17 17 17 17 16 16 16 16 16 15 15 15 15 14 14 14 14 13 13 13 13 13 13 13 13 12 12 12 12 12 11 11 11 11 11 11 10 10
19 19 18 18 17 17 17 17 16 16 16 15 15 15 15 15 15 14 14 14 13 13 13 13 13 13 12 12 12 12 12 12 11 11 11 11 11 11 11 10 10 10 10
19 18 18 18 17 17 17 16 16 15 15 15 15 15 15 15 14 14 14 13 13 13 13 12 12 12 12 12 12 12 11 11 11 11 11 11 10 10 10 10 10 10 10
18 18 18 17 17 17 17 16 16 15 15 15 14 14 14 14 14 13 13 13 13 12 12 12 12 12 12 11 11 11 11 11 11 11 11 10 10 10 10 10 10 10 10
18 18 17 17 17 16 16 16 15 15 14 14 14 14 14 14 13 13 13 13 12 12 12 11 11 11 11 11 11 11 11 11 11 10 10 10 10 10 10 10 10 10 9
18 17 17 17 16 16 15 15 15 14 14 14 14 13 13 13 13 13 12 12 12 12 11 11 11 11 11 11 11 10 10 10 10 10 10 10 9 9 9 9 9 9 9
17 17 16 16 16 15 15 15 14 14 14 13 13 13 12 12 12 12 12 12 11 11 11 11 10 10 10 10 10 10 10 10 10 10 9 9 9 9 9 9 9 9 9
17 16 16 15 15 15 14 14 14 14 13 13 13 12 12 12 12 12 11 11 11 11 10 10 10 10 10 10 10 10 10 10 9 9 9 9 9 9 9 9 9 9 9
16 15 15 15 15 14 14 14 14 13 13 13 13 12 12 12 12 11 11 11 11 10 10 10 10 10 10 10 10 10 9 9 9 9 9 9 9 9 9 9 9 8 8
15 15 14 14 14 14 14 13 13 13 13 13 12 12 12 12 11 11 11 10 10 10 10 10 10 10 10 10 10 10 9 9 9 9 9 9 9 9 9 9 9 9 8
15 14 14 14 14 14 13 13 13 13 12 12 12 12 12 11 11 11 10 10 10 10 10 10 10 10 10 10 10 9 9 9 9 9 9 9 9 9 9 9 9 8 8
14 14 14 14 14 13 13 13 13 13 12 12 12 11 11 11 11 11 10 10 10 10 10 10 10 10 10 9 9 9 9 9 9 9 9 9 9 9 9 9 8 8 8
14 14 14 14 13 13 13 13 12 12 12 12 12 11 11 11 11 10 10 10 10 10 10 10 10 10 9 9 9 9 9 9 9 9 8 8 8 8 8 8 8 8 8
14 13 13 13 13 13 13 13 12 12 12 11 11 11 11 11 11 11 10 10 10 10 10 10 10 9 9 9 9 9 9 9 8 8 8 8 8 8 8 8 8 8 8
13 13 13 13 13 13 13 12 12 12 12 11 11 11 11 11 11 11 10 10 10 10 10 10 9 9 9 9 9 9 8 8 8 8 8 8 8 8 8 8 8 8 8
13 13 13 13 13 12 12 12 12 12 12 12 11 11 11 11 11 11 10 10 10 10 10 9 9 9 9 9 8 8 8 8 8 8 8 8 7 7 7 7 7 7 7
12 12 12 12 12 12 12 12 12 12 12 12 11 11 11 11 11 11 10 10 10 10 9 9 9 9 9 8 8 8 8 8 8 8 7 7 7 7 7 7 7 7 7
12 12 12 12 12 12 12 12 12 11 11 11 11 11 11 11 10 10 10 10 9 9 9 9 9 9 8 8 8 8 8 8 7 7 7 7 7 7 7 6 6 6 6
12 12 12 12 12 11 11 11 11 11 11 11 11 11 11 10 10 10 10 9 9 9 9 9 8 8 8 8 8 8 7 7 7 7 7 6 6 6 6 6 6 6 6
12 12 12 12 11 11 11 11 11 11 11 11 11 10 10 10 10 10 9 9 9 9 8 8 8 8 8 8 7 7 7 7 7 6 6 6 6 6 6 5 5 5 6
Wind_Speed
6 5 3 3 3 2 1 1 2 2 2 2 2 3 3 3 3 3 2 2 3 3 2 2 2 3 2 2 1 1 0 1 1 1 2 3 4 4 6 8 10 10 10
6 6 5 3 2 2 2 2 2 2 2 2 2 3 3 3 3 3 3 4 4 3 3 3 3 3 3 3 2 2 1 1 3 2 2 2 3 3 5 5 7 9 10
8 7 6 4 3 3 2 3 3 2 3 3 3 3 3 4 3 4 4 4 4 5 5 5 4 4 4 3 3 2 1 1 3 3 3 2 2 2 4 4 5 6 7
7 7 6 5 4 4 3 3 3 3 3 3 3 4 4 4 4 4 4 4 5 5 5 6 6 6 5 5 4 4 3 2 3 4 3 2 2 1 2 3 3 2 3
6 6 6 6 5 4 4 4 3 3 4 4 4 4 4 5 5 5 5 5 5 5 6 6 8 9 10 7 6 5 4 3 3 4 3 2 2 1 1 1 3 3 3
6 6 6 6 5 5 4 4 4 4 5 5 5 5 6 6 8 9 6 5 5 5 5 5 6 8 9 10 11 10 7 5 4 4 3 3 2 1 1 1 1 2 1
6 6 6 6 5 5 5 5 5 5 5 5 6 6 7 8 10 10 9 5 5 6 5 5 5 7 6 5 7 8 8 9 6 4 4 2 2 2 1 1 1 1 1
6 6 6 6 6 5 5 5 5 5 5 5 5 6 6 7 9 9 8 4 5 5 5 5 6 6 7 6 5 6 7 6 6 4 3 3 3 2 1 0 2 2 1
7 6 6 5 6 6 6 5 5 5 5 5 5 5 5 6 8 8 6 3 4 5 6 6 6 6 8 8 5 5 5 4 7 9 7 5 5 5 5 2 1 1 1
6 6 6 5 6 6 6 5 5 5 5 5 4 4 5 6 7 8 7 2 3 4 5 6 9 8 8 8 4 4 3 2 3 4 4 4 5 5 6 4 2 2 1
6 6 7 6 6 6 6 5 5 5 5 5 5 5 5 6 6 8 8 3 3 3 3 4 5 7 7 7 5 3 2 1 0 2 3 3 3 3 4 4 4 2 2
6 7 6 6 6 6 6 5 5 5 5 5 4 4 4 4 5 6 7 6 5 4 3 3 4 4 5 5 4 4 5 3 1 2 3 3 3 2 2 3 3 3 2
7 6 6 5 4 5 6 5 4 4 4 4 4 3 4 4 4 5 5 6 6 4 3 4 3 1 1 1 2 3 3 2 2 2 2 2 2 2 1 1 0 0 1
6 5 5 5 5 5 3 3 3 2 2 3 3 3 4 3 3 2 2 2 3 2 2 3 2 1 1 1 1 1 1 1 2 1 1 1 1 1 1 1 1 0 1
6 5 5 4 5 5 4 3 2 3 2 2 2 2 3 3 2 2 1 1 0 1 1 2 2 2 1 1 1 1 1 1 2 2 1 2 1 1 1 1 1 1 1
5 5 4 4 5 5 6 5 9 7 8 8 7 5 4 6 6 5 4 4 3 2 1 1 2 2 1 1 1 1 1 1 1 1 2 2 1 1 1 1 1 1 1
4 4 4 5 5 5 5 5 5 4 7 8 7 7 7 7 5 4 3 3 2 1 1 2 1 1 1 1 1 1 2 1 1 1 1 1 1 1 1 1 1 1 1
4 4 4 4 5 5 5 6 5 6 5 4 4 5 6 6 4 2 2 1 1 2 3 2 1 1 1 1 1 1 1 1 0 1 1 1 2 2 2 2 1 1 2
3 3 3 3 4 4 5 5 5 6 5 6 5 4 5 5 3 2 2 2 3 3 3 2 1 1 1 1 1 0 0 0 0 1 1 1 2 2 2 2 1 1 2
2 3 3 3 4 4 4 4 4 5 5 5 6 6 6 5 4 4 4 4 4 2 1 1 1 1 1 1 1 1 1 1 1 1 1 1 2 2 3 3 2 2 2
3 3 4 3 3 4 4 4 4 4 4 5 5 6 8 6 6 6 6 5 4 2 2 1 1 2 2 2 1 2 2 0 0 1 1 1 2 2 3 3 3 3 3
2 3 3 3 3 3 4 4 4 4 4 4 5 6 9 6 4 4 4 4 4 3 2 2 2 1 1 1 1 0 0 0 1 1 2 2 2 3 3 3 3 3 3
3 4 4 3 3 4 4 3 4 4 4 4 4 5 6 5 4 3 2 2 2 2 2 2 1 1 0 0 0 1 1 1 1 2 2 2 3 3 3 3 4 5 4
3 4 4 4 3 4 4 4 3 3 3 3 3 4 5 5 4 3 2 2 2 2 2 2 2 1 1 1 1 2 2 2 2 3 4 3 4 4 4 4 4 5 5
4 4 5 5 5 4 4 4 3 3 3 3 3 3 4 4 3 3 2 2 2 2 2 2 2 2 2 2 2 3 5 5 4 4 3 4 4 4 5 6 5 5 5
3 4 4 3 3 3 3 3 3 3 3 3 3 2 2 3 3 3 2 2 2 2 3 3 2 3 3 3 4 5 4 3 2 4 4 5 4 5 5 5 7 6 6
Wind_Direction
151 143 137 142 152 145 118 87 68 56 50 32 21 23 34 35 26 30 34 27 30 23 10 7 348 343 339 334 339 350 39 120 154 72 81 85 92 96 104 107 108 101 95
152 144 144 142 136 128 112 87 81 82 74 56 49 38 37 49 48 49 42 41 37 30 20 15 2 1 8 9 7 19 38 128 147 147 105 90 94 102 113 108 107 106 105
155 151 150 148 137 121 103 91 85 84 79 68 64 59 46 50 54 60 58 48 44 39 34 28 20 19 14 11 22 21 25 91 130 137 129 113 106 109 111 104 102 104 107
150 150 149 146 140 130 119 108 95 88 80 72 66 65 61 57 48 55 69 65 60 55 49 43 37 38 30 22 34 29 49 77 103 113 111 98 78 83 118 123 115 98 100
141 147 148 142 135 125 116 109 98 88 83 76 70 67 62 62 46 49 62 67 62 60 57 59 60 65 60 53 57 44 47 70 88 98 97 83 69 69 100 122 123 119 89
141 139 133 131 130 126 118 108 97 87 81 82 77 73 66 60 46 46 52 64 62 62 64 66 75 70 71 71 70 61 57 65 72 87 87 90 72 46 61 122 125 134 119
135 128 130 131 130 129 125 117 108 99 92 87 83 83 76 56 45 41 44 55 63 56 52 46 54 58 53 64 74 71 62 57 67 89 88 78 74 34 29 85 90 101 140
136 132 131 134 131 123 114 112 107 104 101 92 87 86 85 64 45 41 41 65 72 66 59 53 58 50 40 40 64 71 66 55 62 81 85 77 68 34 359 75 143 145 138
141 139 136 136 133 131 126 120 115 112 105 99 93 90 86 68 43 39 31 77 84 74 69 59 56 53 35 37 65 77 79 82 79 82 87 91 89 67 48 42 45 88 100
142 136 131 129 132 134 129 123 118 117 115 108 100 97 94 81 52 41 30 66 95 93 87 74 62 55 44 36 54 72 65 46 63 87 90 90 90 80 65 48 23 11 34
134 130 126 124 126 127 124 125 127 126 122 116 110 102 94 88 74 51 41 42 53 78 92 84 64 48 43 33 30 45 33 345 348 113 105 95 81 74 67 57 44 45 38
126 130 129 131 136 135 131 132 139 141 138 133 131 124 107 96 81 67 55 47 39 63 75 86 85 61 45 29 24 11 359 348 37 82 87 85 82 75 67 65 75 86 92
130 132 132 132 127 133 144 151 158 162 162 154 151 140 125 118 102 86 75 61 57 65 78 96 112 112 51 24 19 360 354 6 36 64 73 79 88 104 105 89 92 211 192
138 140 138 138 134 126 130 142 153 158 164 154 148 147 137 129 118 115 133 123 110 112 123 135 161 201 282 354 -0 354 9 21 30 44 63 90 108 105 97 90 57 42 60
145 147 146 149 147 132 112 72 94 77 90 130 130 129 136 139 130 136 140 117 94 69 136 173 174 170 179 172 150 132 68 54 35 18 38 57 59 60 49 50 13 0 20
156 162 167 167 158 150 138 106 58 71 80 79 79 93 100 114 124 102 78 59 49 53 39 209 179 170 165 146 138 137 114 74 18 13 24 32 32 48 21 342 1 13 13
162 173 179 172 169 166 160 154 139 95 74 71 80 95 114 131 126 113 80 41 5 31 243 230 166 151 138 122 123 83 84 82 29 4 3 357 344 337 352 351 1 6 356
174 182 191 176 175 172 170 171 166 160 151 129 101 122 142 150 150 137 93 56 247 222 226 224 186 152 136 111 74 73 82 95 36 314 348 352 342 343 350 343 358 358 334
182 188 191 177 174 174 172 173 169 168 161 150 145 150 168 167 171 190 173 223 247 229 202 202 205 163 129 123 94 47 52 164 296 305 332 322 321 321 317 310 318 320 300
173 171 182 179 173 172 174 177 173 169 164 160 169 167 163 174 188 193 203 230 250 248 232 210 191 166 141 148 169 220 220 212 233 253 272 309 312 313 316 318 319 311 295
165 160 169 176 175 175 177 180 178 181 186 179 172 166 170 187 199 199 198 208 226 238 235 231 188 185 182 197 209 228 238 237 351 317 331 327 314 311 308 306 305 308 313
170 173 183 182 177 178 186 188 189 189 194 183 170 170 177 200 219 213 196 194 206 210 211 218 220 203 172 164 180 250 272 63 324 321 317 308 301 301 302 305 313 319 319
187 184 186 185 177 174 190 198 199 202 200 188 179 171 181 208 224 217 201 192 188 195 192 211 232 229 151 110 92 73 23 349 348 342 330 323 314 306 307 311 311 310 306
197 196 193 188 189 188 194 200 201 206 207 205 195 188 192 202 217 218 207 193 198 190 184 208 225 209 157 120 106 92 73 56 21 356 347 326 312 310 316 313 306 308 309
207 202 199 198 199 197 197 203 203 208 215 211 207 212 205 193 199 207 201 196 203 206 204 207 195 183 160 136 113 98 88 68 38 6 335 314 305 311 309 304 301 303 304
213 204 198 198 191 188 187 193 196 204 211 221 231 227 219 215 210 205 193 189 204 203 198 195 179 156 159 166 137 117 109 89 23 338 312 297 300 301 306 304 308 309 304
Height
1550 1551 1552 1552 1552 1552 1552 1552 1551 1551 1551 1551 1550 1550 1550 1550 1549 1549 1549 1549 1549 1549 1549 1549 1549 1549 1549 1549 1549 1550 1550 1551 1551 1552 1553 1553 1553 1553 1554 1554 1553 1553 1553
1550 1550 1551 1552 1552 1552 1551 1551 1551 1551 1550 1550 1550 1549 1549 1549 1549 1548 1548 1548 1548 1548 1548 1548 1548 1548 1548 1548 1548 1548 1548 1549 1549 1549 1550 1551 1551 1552 1552 1552 1552 1552 1552
1549 1550 1550 1551 1551 1551 1551 1551 1551 1550 1550 1550 1549 1549 1549 1549 1548 1548 1548 1548 1548 1548 1548 1547 1547 1547 1546 1546 1546 1546 1547 1547 1547 1547 1548 1549 1549 1550 1551 1551 1551 1551 1551
1549 1549 1550 1550 1550 1550 1550 1550 1550 1550 1550 1550 1549 1549 1549 1549 1548 1548 1548 1548 1547 1547 1547 1547 1546 1546 1545 1545 1545 1545 1545 1545 1545 1546 1546 1547 1548 1549 1549 1549 1549 1550 1550
1548 1548 1549 1549 1550 1550 1550 1550 1550 1550 1550 1550 1549 1549 1549 1549 1549 1549 1548 1548 1548 1547 1547 1547 1546 1546 1545 1545 1544 1544 1544 1544 1545 1545 1546 1546 1547 1548 1548 1549 1549 1549 1549
1546 1547 1548 1549 1549 1550 1550 1550 1550 1550 1550 1550 1550 1549 1549 1549 1549 1549 1549 1548 1548 1548 1547 1547 1547 1546 1545 1545 1545 1544 1544 1544 1544 1544 1545 1546 1546 1547 1548 1548 1548 1548 1548
1545 1546 1547 1548 1548 1549 1550 1549 1550 1550 1550 1550 1549 1549 1549 1549 1549 1549 1549 1549 1548 1548 1547 1547 1547 1546 1546 1545 1545 1545 1545 1545 1545 1545 1545 1545 1546 1546 1547 1547 1547 1547 1547
1544 1546 1547 1547 1548 1549 1549 1549 1549 1549 1550 1550 1550 1550 1550 1550 1550 1550 1550 1549 1549 1548 1548 1547 1547 1546 1546 1546 1546 1545 1545 1546 1546 1546 1546 1546 1546 1546 1547 1547 1547 1547 1547
1543 1545 1546 1547 1548 1548 1549 1549 1549 1549 1550 1550 1550 1550 1550 1550 1550 1550 1550 1549 1549 1549 1548 1547 1547 1547 1547 1546 1546 1546 1546 1547 1547 1547 1547 1546 1546 1546 1547 1547 1547 1547 1546
1542 1543 1545 1546 1546 1547 1548 1548 1549 1549 1549 1549 1549 1549 1549 1549 1550 1550 1550 1549 1549 1549 1548 1548 1547 1547 1547 1547 1546 1546 1547 1547 1547 1547 1547 1547 1547 1547 1547 1546 1546 1546 1546
1541 1542 1543 1544 1546 1547 1547 1547 1548 1549 1549 1549 1549 1549 1549 1549 1549 1549 1549 1549 1549 1549 1548 1548 1548 1548 1547 1547 1547 1547 1547 1548 1548 1548 1548 1547 1547 1547 1547 1546 1546 1546 1545
1540 1541 1542 1543 1544 1545 1546 1547 1547 1548 1548 1549 1549 1549 1549 1549 1549 1549 1549 1549 1549 1549 1548 1548 1548 1549 1548 1548 1548 1548 1548 1548 1548 1548 1548 1548 1547 1547 1547 1546 1546 1546 1545
1538 1540 1541 1542 1543 1544 1545 1546 1547 1547 1548 1548 1548 1548 1548 1548 1548 1549 1549 1549 1549 1549 1549 1549 1549 1549 1549 1549 1549 1549 1549 1549 1549 1549 1549 1548 1548 1548 1547 1547 1546 1546 1545
1537 1538 1539 1541 1542 1543 1544 1545 1546 1546 1547 1547 1547 1548 1548 1548 1548 1548 1548 1549 1549 1549 1550 1550 1550 1550 1550 1550 1550 1550 1550 1550 1550 1550 1549 1549 1549 1548 1548 1547 1547 1546 1545
1535 1537 1538 1539 1541 1541 1542 1543 1544 1545 1545 1546 1546 1546 1546 1547 1547 1547 1548 1548 1548 1549 1549 1550 1550 1550 1550 1550 1551 1551 1550 1550 1550 1550 1550 1549 1549 1549 1548 1548 1547 1546 1546
1534 1535 1537 1538 1539 1540 1540 1541 1542 1543 1544 1544 1545 1545 1545 1546 1546 1547 1548 1548 1548 1549 1549 1549 1550 1550 1551 1551 1551 1551 1551 1551 1550 1550 1550 1550 1549 1549 1548 1548 1547 1547 1546
1532 1534 1535 1536 1537 1538 1539 1540 1540 1541 1542 1543 1543 1544 1545 1545 1546 1547 1547 1548 1548 1549 1549 1549 1550 1550 1551 1551 1551 1551 1551 1550 1550 1550 1550 1550 1550 1549 1548 1548 1547 1546 1545
1531 1532 1534 1535 1536 1537 1538 1539 1539 1540 1540 1541 1542 1543 1544 1545 1546 1546 1547 1547 1548 1548 1548 1549 1549 1550 1550 1550 1550 1550 1550 1550 1550 1550 1550 1549 1549 1548 1548 1547 1546 1545 1545
1530 1531 1532 1533 1534 1535 1536 1537 1538 1539 1539 1540 1541 1542 1543 1543 1544 1545 1546 1546 1547 1547 1548 1548 1548 1549 1549 1549 1549 1549 1549 1549 1549 1549 1549 1548 1548 1547 1547 1546 1545 1544 1543
1527 1529 1530 1531 1532 1533 1534 1536 1537 1538 1538 1539 1540 1540 1541 1542 1543 1544 1544 1545 1546 1546 1547 1547 1547 1547 1547 1547 1547 1547 1547 1547 1547 1547 1547 1547 1546 1546 1545 1544 1544 1543 1542
1526 1527 1528 1529 1530 1531 1532 1534 1535 1536 1537 1538 1539 1539 1540 1540 1541 1542 1543 1543 1544 1545 1545 1545 1546 1546 1545 1545 1545 1545 1545 1545 1545 1545 1544 1544 1544 1544 1543 1543 1542 1541 1539
1524 1525 1526 1527 1528 1529 1530 1532 1533 1534 1536 1536 1537 1538 1538 1539 1540 1541 1541 1542 1542 1543 1543 1543 1543 1543 1543 1543 1543 1543 1543 1543 1542 1542 1542 1541 1541 1541 1540 1540 1539 1538 1537
1523 1524 1525 1526 1527 1528 1529 1530 1531 1532 1533 1534 1535 1535 1536 1537 1538 1539 1539 1540 1540 1540 1541 1541 1541 1541 1541 1540 1541 1540 1540 1540 1539 1539 1539 1539 1538 1538 1537 1536 1536 1535 1534
1522 1523 1523 1524 1525 1526 1527 1528 1529 1530 1531 1532 1533 1533 1534 1535 1536 1536 1537 1537 1537 1538 1538 1538 1538 1538 1537 1537 1538 1537 1537 1536 1536 1536 1535 1535 1535 1534 1534 1533 1532 1532 1531
1520 1521 1522 1522 1523 1524 1525 1526 1527 1528 1529 1530 1531 1531 1532 1532 1533 1533 1534 1534 1534 1535 1535 1535 1535 1535 1535 1534 1534 1534 1533 1533 1533 1532 1532 1531 1531 1530 1530 1530 1529 1528 1527
1518 1519 1520 1521 1522 1523 1523 1524 1525 1526 1527 1527 1528 1529 1529 1530 1530 1530 1531 1531 1532 1532 1532 1532 1532 1532 1531 1531 1531 1530 1530 1530 1529 1529 1528 1527 1527 1526 1526 1525 1525 1524 1523